This demonstration page uses our WeatherBlox Daily Observations layout. Learn more.

Left ArrowRight Arrow

39.01783, -85.05884

Hourly Observations for May 13, 2021

Temp ( °F °C ) Dew Point ( °F °C ) Humidity (%) Winds ( mph kmh ) Pressure ( in mb ) Visibility ( mi km ) Precip ( " mm )
12:52 am 00:52 Clear 52 11.1 33 0.6 49 49 NNE 7 11 30.35 1028 10 16.0934 N/A
1:52 am 01:52 Clear 51 10.6 32 undefined 48 48 NE 8 13 30.35 1028 10 16.0934 N/A
2:52 am 02:52 Clear 48 8.9 33 0.6 56 56 NNE 6 9 30.35 1028 10 16.0934 N/A
3:52 am 03:52 Clear 46 7.8 32 undefined 58 58 N 6 9 30.34 1028 10 16.0934 N/A
4:52 am 04:52 Clear 43 6.1 33 0.6 68 68 NNW 3 6 30.34 1028 10 16.0934 N/A
5:52 am 05:52 Clear 43 6.1 33 0.6 68 68 N 5 7 30.35 1028 10 16.0934 N/A
6:52 am 06:52 Sunny 42 5.6 33 0.6 71 71 NNW 3 6 30.36 1028 10 16.0934 N/A
7:52 am 07:52 Sunny 48 8.9 36 2.2 63 63 N N/A 30.38 1029 8 12.87472 N/A
8:52 am 08:52 Sunny 53 11.7 37 2.8 55 55 N 6 9 30.39 1029 10 16.0934 N/A
9:52 am 09:52 Sunny 57 13.9 34 1.1 42 42 NNE 8 13 30.39 1029 10 16.0934 N/A
10:52 am 10:52 Mostly Sunny 60 15.6 34 1.1 38 38 ENE 9 15 30.38 1029 10 16.0934 N/A
11:52 am 11:52 Mostly Sunny 62 16.7 30 -1.1 30 30 E 8 13 30.38 1029 10 16.0934 N/A
12:52 pm 12:52 Partly Cloudy 62 16.7 30 -1.1 30 30 ENE 8 13 30.37 1028 10 16.0934 N/A
1:52 pm 13:52 Partly Cloudy 65 18.3 28 -2.2 25 25 NE 8 13 30.35 1028 10 16.0934 N/A
2:52 pm 14:52 Mostly Sunny 64 17.8 27 -2.8 25 25 ENE 15 24 30.33 1027 10 16.0934 N/A
3:52 pm 15:52 Mostly Sunny 66 18.9 26 -3.3 22 22 E 8 13 30.31 1027 10 16.0934 N/A
4:52 pm 16:52 Mostly Sunny 66 18.9 26 -3.3 22 22 VRB 5 7 30.29 1026 10 16.0934 N/A
5:52 pm 17:52 Mostly Sunny 67 19.4 28 -2.2 23 23 NNE 5 7 30.29 1026 10 16.0934 N/A
6:52 pm 18:52 Mostly Sunny 65 18.3 27 -2.8 24 24 E 10 17 30.28 1025 10 16.0934 N/A
7:52 pm 19:52 Mostly Sunny 64 17.8 25 -3.9 23 23 NE 6 9 30.27 1025 10 16.0934 N/A
8:52 pm 20:52 Mostly Clear 61 16.1 27 -2.8 27 27 ENE 7 11 30.28 1025 10 16.0934 N/A
9:52 pm 21:52 Mostly Clear 59 15 29 -1.7 32 32 N N/A 30.29 1026 10 16.0934 N/A
10:52 pm 22:52 Mostly Clear 53 11.7 31 -0.6 43 43 N N/A 30.3 1026 10 16.0934 N/A
11:52 pm 23:52 Mostly Clear 52 11.1 33 0.6 49 49 N 3 6 30.3 1026 10 16.0934 N/A

Powered by AerisWeather